AUA551Y LOWW-LIRF

Flight info

Callsign AUA551Y
Flight time N/A
Altitude 36000
Route RUPET DCT GRZ DCT GIRDA DCT BAXON/N0453F350 DCT UNUMU DCT ETPOK DCT RITEB
Aircraft A321/M-SDE3FGHIRWY/LB1

Departure

Time 2026-05-05 14:04
Airport Vienna International Airport (LOWW)

Arrival

Time N/A
Airport Rome–Fiumicino Leonardo da Vinci International Airport (LIRF)
Time Latitude Longitude Altitude Speed Heading
2026-05-05 13:12 48.12007 16.56984 622 ft 0 kts 26°
2026-05-05 13:49 48.11996 16.56976 615 ft 4 kts 25°
2026-05-05 13:50 48.11977 16.56962 618 ft 4 kts 33°
2026-05-05 13:50 48.11966 16.56941 627 ft 4 kts 113°
2026-05-05 13:50 48.11962 16.56952 619 ft 2 kts 116°
2026-05-05 13:50 48.11962 16.56955 621 ft 0 kts 116°
2026-05-05 13:55 48.11961 16.56957 611 ft 1 kts 116°
2026-05-05 13:55 48.11949 16.56995 615 ft 6 kts 116°
2026-05-05 13:56 48.11926 16.57064 616 ft 7 kts 115°
2026-05-05 13:56 48.11902 16.57141 621 ft 9 kts 115°
2026-05-05 13:56 48.11859 16.57210 617 ft 10 kts 130°
2026-05-05 13:56 48.11853 16.57307 619 ft 9 kts 36°
2026-05-05 13:57 48.11926 16.57295 619 ft 12 kts 343°
2026-05-05 13:57 48.11991 16.57344 619 ft 11 kts 68°
2026-05-05 13:57 48.12012 16.57447 616 ft 9 kts 76°
2026-05-05 13:57 48.12005 16.57535 617 ft 8 kts 104°
2026-05-05 13:58 48.11999 16.57570 617 ft 0 kts 104°
2026-05-05 14:02 48.11999 16.57571 611 ft 0 kts 104°
2026-05-05 14:02 48.11993 16.57606 611 ft 6 kts 104°
2026-05-05 14:02 48.11984 16.57661 614 ft 5 kts 104°
2026-05-05 14:02 48.11973 16.57724 614 ft 8 kts 105°
2026-05-05 14:03 48.11958 16.57803 617 ft 7 kts 107°
2026-05-05 14:03 48.11923 16.57841 616 ft 0 kts 162°
2026-05-05 14:03 48.11895 16.57853 613 ft 14 kts 164°
2026-05-05 14:03 48.11587 16.57984 616 ft 77 kts 164°
2026-05-05 14:04 48.10902 16.58273 624 ft 125 kts 164°
2026-05-05 14:04 48.09933 16.58683 655 ft 159 kts 164°
2026-05-05 14:04 48.08900 16.59139 1258 ft 154 kts 168°
2026-05-05 14:04 48.07861 16.59572 1814 ft 157 kts 169°
2026-05-05 14:05 48.06748 16.60009 2083 ft 174 kts 173°
2026-05-05 14:05 48.05535 16.59678 2206 ft 192 kts 212°
2026-05-05 14:05 48.04469 16.58289 2338 ft 217 kts 223°
2026-05-05 14:05 48.03396 16.56546 2698 ft 235 kts 225°
2026-05-05 14:06 48.02295 16.54691 3362 ft 241 kts 225°
2026-05-05 14:06 48.01186 16.52854 4127 ft 242 kts 225°
2026-05-05 14:06 48.00042 16.51004 4911 ft 243 kts 224°
2026-05-05 14:06 47.98876 16.49154 5634 ft 246 kts 224°
2026-05-05 14:07 47.97688 16.47297 6345 ft 249 kts 224°
2026-05-05 14:07 47.96515 16.45364 6984 ft 255 kts 232°
2026-05-05 14:07 47.95707 16.42980 7675 ft 262 kts 249°
2026-05-05 14:07 47.95234 16.40343 8361 ft 265 kts 252°
2026-05-05 14:08 47.94759 16.37665 9074 ft 266 kts 251°
2026-05-05 14:08 47.94279 16.34988 9759 ft 269 kts 252°
2026-05-05 14:08 47.93789 16.32267 10211 ft 279 kts 252°
2026-05-05 14:08 47.93265 16.29371 10347 ft 300 kts 253°
2026-05-05 14:09 47.92701 16.26268 10469 ft 320 kts 253°
2026-05-05 14:09 47.92101 16.22972 10617 ft 338 kts 253°
2026-05-05 14:09 47.91477 16.19549 11003 ft 345 kts 253°
2026-05-05 14:09 47.90848 16.16095 11643 ft 346 kts 253°
2026-05-05 14:10 47.90217 16.12644 12110 ft 351 kts 253°
2026-05-05 14:10 47.89569 16.09098 12581 ft 358 kts 254°
2026-05-05 14:10 47.88914 16.05506 13148 ft 360 kts 254°
2026-05-05 14:10 47.88121 16.01957 13665 ft 362 kts 245°
2026-05-05 14:11 47.86841 15.98727 14166 ft 364 kts 233°
2026-05-05 14:11 47.85087 15.95981 14583 ft 369 kts 220°
2026-05-05 14:11 47.82930 15.93875 14950 ft 374 kts 207°
2026-05-05 14:11 47.80510 15.92422 15452 ft 376 kts 202°
2026-05-05 14:12 47.78064 15.91045 15972 ft 376 kts 202°
2026-05-05 14:12 47.75615 15.89657 16417 ft 377 kts 202°
2026-05-05 14:12 47.73154 15.88258 16813 ft 381 kts 202°
2026-05-05 14:12 47.70671 15.86851 17235 ft 382 kts 202°
2026-05-05 14:13 47.68177 15.85442 17697 ft 383 kts 202°
2026-05-05 14:13 47.65695 15.84039 18171 ft 382 kts 202°
2026-05-05 14:13 47.63197 15.82625 18449 ft 386 kts 202°
2026-05-05 14:13 47.60673 15.81199 18698 ft 390 kts 202°
2026-05-05 14:14 47.58992 15.80251 18937 ft 390 kts 202°
2026-05-05 14:14 47.56447 15.78821 19282 ft 392 kts 202°
2026-05-05 14:14 47.53904 15.77392 19679 ft 392 kts 201°
2026-05-05 14:14 47.51337 15.75951 19929 ft 397 kts 201°
2026-05-05 14:15 47.47850 15.73995 20306 ft 401 kts 202°
2026-05-05 14:15 47.46120 15.73023 20586 ft 402 kts 202°
2026-05-05 14:15 47.43513 15.71564 21053 ft 401 kts 202°
2026-05-05 14:15 47.40895 15.70098 21415 ft 403 kts 201°
2026-05-05 14:16 47.38262 15.68626 21747 ft 407 kts 201°
2026-05-05 14:16 47.35606 15.67142 22100 ft 408 kts 201°
2026-05-05 14:16 47.32938 15.65655 22504 ft 409 kts 202°
2026-05-05 14:16 47.30270 15.64168 22854 ft 412 kts 201°
2026-05-05 14:17 47.27621 15.62689 23106 ft 415 kts 201°
2026-05-05 14:17 47.24909 15.61177 23440 ft 417 kts 201°
2026-05-05 14:17 47.22187 15.59661 23743 ft 418 kts 202°
2026-05-05 14:17 47.19471 15.58150 24121 ft 418 kts 201°
2026-05-05 14:18 47.16744 15.56635 24379 ft 421 kts 201°
2026-05-05 14:18 47.13985 15.55107 24571 ft 425 kts 202°
2026-05-05 14:18 47.11216 15.53581 24884 ft 425 kts 202°
2026-05-05 14:18 47.08452 15.52058 25238 ft 425 kts 202°
2026-05-05 14:19 47.05672 15.50525 25501 ft 428 kts 202°
2026-05-05 14:19 47.02873 15.48983 25713 ft 431 kts 202°
2026-05-05 14:19 47.00067 15.47438 26029 ft 431 kts 202°
2026-05-05 14:19 46.97265 15.45895 26368 ft 431 kts 202°
2026-05-05 14:20 46.94549 15.44031 26575 ft 432 kts 211°
2026-05-05 14:20 46.91987 15.41711 26772 ft 434 kts 213°
2026-05-05 14:20 46.89419 15.39356 27022 ft 435 kts 213°
2026-05-05 14:20 46.86851 15.37005 27253 ft 437 kts 213°
2026-05-05 14:21 46.84269 15.34644 27434 ft 439 kts 213°
2026-05-05 14:21 46.81675 15.32281 27638 ft 440 kts 213°
2026-05-05 14:21 46.79072 15.29918 27874 ft 441 kts 212°
2026-05-05 14:21 46.76461 15.27558 28047 ft 442 kts 212°
2026-05-05 14:22 46.73843 15.25191 28256 ft 442 kts 213°
2026-05-05 14:22 46.71237 15.22831 28567 ft 440 kts 213°
2026-05-05 14:22 46.68640 15.20483 28853 ft 439 kts 213°
2026-05-05 14:22 46.66046 15.18136 29068 ft 439 kts 213°
2026-05-05 14:23 46.63454 15.15790 29317 ft 438 kts 213°
2026-05-05 14:23 46.60865 15.13450 29628 ft 437 kts 213°
2026-05-05 14:23 46.58284 15.11121 29852 ft 437 kts 213°
2026-05-05 14:23 46.55702 15.08793 30039 ft 437 kts 213°
2026-05-05 14:24 46.53116 15.06466 30249 ft 437 kts 212°
2026-05-05 14:24 46.50563 15.04175 30463 ft 437 kts 212°
2026-05-05 14:24 46.47974 15.01857 30649 ft 437 kts 212°
2026-05-05 14:24 46.45394 14.99547 30874 ft 436 kts 213°
2026-05-05 14:25 46.42810 14.97233 31108 ft 435 kts 213°
2026-05-05 14:25 46.40233 14.94928 31322 ft 435 kts 212°
2026-05-05 14:25 46.37664 14.92636 31624 ft 432 kts 213°
2026-05-05 14:25 46.35115 14.90369 31991 ft 428 kts 213°
2026-05-05 14:26 46.32581 14.88117 32256 ft 427 kts 213°
2026-05-05 14:26 46.30044 14.85858 32406 ft 429 kts 213°
2026-05-05 14:26 46.27506 14.83598 32653 ft 428 kts 213°
2026-05-05 14:26 46.24978 14.81348 32922 ft 426 kts 213°
2026-05-05 14:27 46.22452 14.79105 33108 ft 427 kts 213°
2026-05-05 14:27 46.19913 14.76854 33245 ft 429 kts 213°
2026-05-05 14:27 46.17368 14.74600 33388 ft 431 kts 213°
2026-05-05 14:27 46.14807 14.72335 33550 ft 432 kts 213°
2026-05-05 14:28 46.12242 14.70072 33750 ft 432 kts 213°
2026-05-05 14:28 46.09678 14.67816 33957 ft 432 kts 213°
2026-05-05 14:28 46.07117 14.65564 34143 ft 431 kts 213°
2026-05-05 14:28 46.04556 14.63313 34315 ft 431 kts 213°
2026-05-05 14:29 46.02031 14.61091 34475 ft 431 kts 214°
2026-05-05 14:29 45.99474 14.58840 34625 ft 431 kts 214°
2026-05-05 14:29 45.96914 14.56590 34774 ft 431 kts 214°
2026-05-05 14:29 45.94355 14.54347 34938 ft 431 kts 214°
2026-05-05 14:30 45.89247 14.49885 35003 ft 429 kts 214°
2026-05-05 14:30 45.84151 14.45442 35007 ft 428 kts 214°
2026-05-05 14:31 45.79059 14.41005 35014 ft 428 kts 214°
2026-05-05 14:31 45.73959 14.36579 35019 ft 428 kts 214°
2026-05-05 14:32 45.68864 14.32163 35020 ft 428 kts 214°
2026-05-05 14:32 45.63768 14.27750 35019 ft 428 kts 214°
2026-05-05 14:33 45.58686 14.23322 35022 ft 427 kts 215°
2026-05-05 14:33 45.53648 14.18833 35021 ft 427 kts 215°
2026-05-05 14:34 45.48610 14.14339 35012 ft 427 kts 215°
2026-05-05 14:34 45.43245 14.10604 35016 ft 431 kts 208°
2026-05-05 14:35 45.37783 14.07095 35017 ft 431 kts 208°
2026-05-05 14:35 45.32360 14.03608 35024 ft 431 kts 208°
2026-05-05 14:36 45.26902 14.00098 35011 ft 430 kts 208°
2026-05-05 14:36 45.21449 13.96602 35023 ft 430 kts 208°
2026-05-05 14:37 45.16000 13.93118 35027 ft 429 kts 208°
2026-05-05 14:37 45.10554 13.89645 35013 ft 429 kts 208°
2026-05-05 14:38 45.05112 13.86182 35019 ft 428 kts 208°
2026-05-05 14:38 44.99679 13.82730 35027 ft 428 kts 208°
2026-05-05 14:39 44.94251 13.79292 35026 ft 427 kts 208°
2026-05-05 14:39 44.88829 13.75860 35021 ft 426 kts 208°
2026-05-05 14:40 44.83414 13.72443 35025 ft 426 kts 208°
2026-05-05 14:40 44.78042 13.69058 35023 ft 426 kts 208°
2026-05-05 14:41 44.72632 13.65665 35017 ft 425 kts 208°
2026-05-05 14:41 44.67235 13.62279 35016 ft 424 kts 208°
2026-05-05 14:42 44.61853 13.58898 35006 ft 423 kts 208°
2026-05-05 14:42 44.56471 13.55538 34989 ft 423 kts 208°
2026-05-05 14:43 44.51094 13.52189 34997 ft 423 kts 208°
2026-05-05 14:43 44.45718 13.48846 34994 ft 423 kts 208°
2026-05-05 14:44 44.40365 13.45460 34992 ft 421 kts 210°
2026-05-05 14:44 44.35193 13.41642 34983 ft 420 kts 213°
2026-05-05 14:45 44.30157 13.37643 34978 ft 419 kts 213°
2026-05-05 14:45 44.25059 13.33675 34979 ft 419 kts 212°
2026-05-05 14:46 44.19927 13.29797 34962 ft 419 kts 212°
2026-05-05 14:46 44.14790 13.25939 34970 ft 419 kts 212°
2026-05-05 14:47 44.09658 13.22082 34969 ft 419 kts 212°